Flag for Norway Weather past 2 weeks in Randaberg, Norway

Now
36 °F

Clear.


Feels Like: 36 °F
Forecast: 39 / 44 °F
Wind: 2 mph from South

Location: Stavanger / Sola

Current Time: Mar 28, 2015 at 3:21:23 AM

Latest Report: Mar 28, 2015 at 2:00 AM


Visibility: 7 mi

Pressure: 29.97 "Hg

Humidity: 94%

Dew point: 34 °F

Location of RandabergLocation

Historic Weather in Randaberg — Graph

°F

Randaberg temperature yesterday

Maximum temperature yesterday: 44 °F (at 5:00 PM)
Minimum temperature yesterday: 30 °F (at 6:00 AM)
Average temperature yesterday: 38 °F

Past Weeks' High & Low Weather Summary

 TemperatureHumidityPressure
High52 °F (Mar 17, 12:00 PM)98% (Mar 19, 8:00 AM)30.77 "Hg (Mar 19, 8:00 AM)
Low27 °F (Mar 15, 6:00 AM)34% (Mar 21, 3:00 PM)29.59 "Hg (Mar 26, 2:00 PM)
Average41 °F76%30.24 "Hg
* Reported Mar 13 2:00 AM — Mar 28 2:00 AM, Randaberg, Weather by CustomWeather, © 2015

Note: Actual official high and low records may vary slightly from our data, if they occured in-between our weather recording intervals... More about our weather records

Advertising

Randaberg weather history for previous 24 hours

 ConditionsComfort  
Time TempWeatherWind HumidityBarometerVisibility
2:00 AM
Sat, Mar 28
36 °FClear.2 mph94%29.97 "Hg7 mi
1:00 AM37 °FPassing clouds.2 mph93%29.98 "Hg9 mi
12:00 AM38 °FOvercast.2 mph91%29.97 "Hg11 mi
11:00 PM
Fri, Mar 27
39 °FOvercast.2 mph92%29.97 "Hg11 mi
9:00 PM38 °FPassing clouds.2 mph93%29.95 "Hg8 mi
8:00 PM39 °FPassing clouds.2 mph88%29.94 "Hg16 mi
7:00 PM42 °FPassing clouds.2 mph82%29.94 "Hg28 mi
6:00 PM44 °FPassing clouds.3 mph76%29.92 "Hg28 mi
5:00 PM44 °FOvercast.2 mph77%29.91 "Hg25 mi
4:00 PM42 °FPartly sunny.3 mph76%29.90 "Hg31 mi
3:00 PM42 °FOvercast.3 mph78%29.90 "Hg25 mi
2:00 PM43 °FPassing clouds.5 mph72%29.88 "Hg22 mi
1:00 PM43 °FPassing clouds.5 mph71%29.89 "Hg22 mi
12:00 PM44 °FScattered clouds.3 mph72%29.88 "Hg19 mi
11:00 AM40 °FOvercast.3 mph83%29.88 "Hg17 mi
10:00 AM40 °FOvercast.1 mph85%29.86 "Hg12 mi
9:00 AM38 °FOvercast.1 mph89%29.85 "Hg9 mi
8:00 AM35 °FPartly sunny.1 mph94%29.84 "Hg10 mi
7:00 AM31 °FScattered clouds.1 mph96%29.82 "Hg11 mi
6:00 AM30 °FSunny.No wind94%29.81 "Hg9 mi
5:00 AM33 °FPassing clouds.No wind91%29.78 "Hg14 mi
3:00 AM33 °FChilly.No wind93%29.77 "Hg12 mi
Weather by CustomWeather, © 2015

See weather overviewHow to use our weather pages